Lapeer, MI

6:40 PM EST on February 19, 2017 (GMT -0500)
Lapeer

Weather History for KD95 - October, 2013

Change the Weather History Date:

Tuesday, October 1, 2013

  Actual Average (KFNT) Record (KFNT)
Temperature  
Mean Temperature 58 °F -  
Max Temperature 75 °F 65 °F 89 °F (2002)
Min Temperature 42 °F 44 °F 28 °F (1960)
Degree Days  
Heating Degree Days 6    
Growing Degree Days 8 (Base 50)    
Moisture  
Dew Point 54 °F    
Average Humidity 83    
Maximum Humidity 100    
Minimum Humidity 57    
Precipitation  
Precipitation 0.00 in - - ()
Sea Level Pressure  
Sea Level Pressure 29.96 in    
Wind  
Wind Speed 4 mph (SW)    
Max Wind Speed 16 mph    
Max Gust Speed 24 mph    
Visibility 8 miles    
Events Fog    
Averages and records for this station are not official NWS values.
T = Trace of Precipitation, MM = Missing Value Source: NWS Daily Summary

Daily Weather History Graph

Daily Weather History Graph

Search for Another Location

Airport or City:

Trip Planner

Search our weather history database for the weather conditions in past years. The results will help you decide how hot, cold, wet, or windy it might be!

Date:

Astronomy

Oct. 01, 2013 Rise Set
Actual Time 7:30 AM EDT 7:13 PM EDT
Civil Twilight 7:02 AM EDT 7:42 PM EDT
Nautical Twilight 6:29 AM EDT 8:15 PM EDT
Astronomical Twilight 5:56 AM EDT 8:48 PM EDT
Moon 3:59 AM EDT (10/1) 5:20 PM EDT (10/1)
Length of Visible Light 12h 39m
Length of Day
11h 43m
Waning Crescent, 12% of the Moon is Illuminated
Oct 1
Waning Crescent
Oct 4
New
Oct 11
First Quarter
Oct 18
Full
Oct 26
Last Quarter

Hourly Weather History & Observations

Time (EDT) Temp. Dew Point Humidity Pressure Visibility Wind Dir Wind Speed Gust Speed Precip Events Conditions
12:13 AM 46.4 °F 45.7 °F 97% 29.97 in 10.0 mi Calm Calm - N/A   Clear
12:33 AM 46.2 °F 45.7 °F 98% 29.96 in 7.0 mi Calm Calm - N/A   Clear
12:53 AM 46.0 °F 45.5 °F 98% 29.96 in 7.0 mi Calm Calm - N/A   Clear
1:14 AM 45.9 °F 45.3 °F 98% 29.96 in 10.0 mi Calm Calm - N/A   Clear
1:33 AM 45.1 °F 44.6 °F 98% 29.97 in 5.0 mi Calm Calm - N/A   Clear
1:53 AM 45.9 °F 45.5 °F 99% 29.97 in 10.0 mi Calm Calm - N/A   Clear
2:14 AM 45.9 °F 45.5 °F 99% 29.97 in 7.0 mi Calm Calm - N/A   Mostly Cloudy
2:33 AM 46.4 °F 46.0 °F 99% 29.97 in 0.2 mi Calm Calm - N/A Fog Fog
2:53 AM 44.6 °F 44.4 °F 99% 29.97 in 0.2 mi Calm Calm - N/A Fog Fog
3:14 AM 43.7 °F 43.5 °F 99% 29.97 in 0.2 mi Calm Calm - N/A Fog Fog
3:33 AM 44.6 °F 44.6 °F 100% 29.97 in 0.8 mi Calm Calm - N/A   Overcast
3:53 AM 44.1 °F 44.1 °F 100% 29.97 in 4.0 mi Calm Calm - N/A   Overcast
4:14 AM 44.1 °F 43.9 °F 99% 29.97 in 0.2 mi Calm Calm - N/A Fog Fog
4:33 AM 43.2 °F 43.2 °F 100% 29.97 in 0.2 mi Calm Calm - N/A Fog Fog
4:53 AM 43.0 °F 43.0 °F 100% 29.98 in 1.0 mi Calm Calm - N/A   Overcast
5:14 AM 43.3 °F 43.3 °F 100% 29.98 in 1.2 mi Calm Calm - N/A   Overcast
5:33 AM 43.9 °F 43.9 °F 100% 29.98 in 3.0 mi Calm Calm - N/A   Mostly Cloudy
5:53 AM 43.0 °F 43.0 °F 100% 29.98 in 3.0 mi Calm Calm - N/A   Scattered Clouds
6:14 AM 42.8 °F 42.8 °F 100% 29.98 in 2.5 mi Calm Calm - N/A   Scattered Clouds
6:33 AM 43.7 °F 43.7 °F 100% 29.98 in 3.0 mi Calm Calm - N/A   Mostly Cloudy
6:53 AM 43.2 °F 43.2 °F 100% 29.99 in 1.8 mi Calm Calm - N/A   Mostly Cloudy
7:14 AM 42.8 °F 42.8 °F 100% 29.99 in 3.0 mi Calm Calm - N/A   Clear
7:33 AM 43.0 °F 43.0 °F 100% 29.99 in 2.0 mi Calm Calm - N/A   Clear
7:53 AM 43.5 °F 43.5 °F 100% 29.99 in 3.0 mi Calm Calm - N/A   Clear
8:14 AM 47.1 °F 46.9 °F 99% 29.99 in 4.0 mi SSW 5.8 mph - N/A   Clear
8:33 AM 55.8 °F 55.4 °F 99% 29.99 in 7.0 mi SW 4.6 mph - N/A   Clear
8:53 AM 58.3 °F 57.0 °F 96% 29.99 in 7.0 mi SW 4.6 mph - N/A   Clear
9:14 AM 60.6 °F 58.1 °F 91% 29.99 in 7.0 mi North - - N/A   Clear
9:33 AM 62.4 °F 59.0 °F 89% 30.00 in 10.0 mi SW 5.8 mph - N/A   Clear
9:53 AM 64.4 °F 59.4 °F 84% 30.00 in 10.0 mi WSW 6.9 mph - N/A   Clear
10:13 AM 66.4 °F 59.7 °F 79% 29.99 in 10.0 mi SW 9.2 mph - N/A   Clear
10:33 AM 67.5 °F 59.9 °F 77% 29.99 in 10.0 mi SW 8.1 mph - N/A   Clear
10:54 AM 68.4 °F 59.9 °F 74% 29.99 in 10.0 mi WSW 6.9 mph - N/A   Clear
11:13 AM 68.9 °F 59.4 °F 72% 29.99 in 10.0 mi WSW 8.1 mph - N/A   Clear
11:33 AM 69.1 °F 59.4 °F 71% 29.99 in 10.0 mi SW 10.4 mph - N/A   Clear
11:53 AM 70.2 °F 59.7 °F 69% 29.98 in 10.0 mi WSW 12.7 mph 16.1 mph N/A   Clear
12:13 PM 70.5 °F 59.9 °F 69% 29.98 in 10.0 mi SW 12.7 mph - N/A   Clear
12:34 PM 70.9 °F 59.9 °F 68% 29.97 in 10.0 mi SW 10.4 mph - N/A   Clear
12:53 PM 71.2 °F 59.9 °F 67% 29.97 in 10.0 mi SW 10.4 mph 16.1 mph N/A   Clear
1:13 PM 71.8 °F 60.1 °F 67% 29.96 in 10.0 mi SW 12.7 mph 18.4 mph N/A   Scattered Clouds
1:33 PM 72.7 °F 60.3 °F 65% 29.95 in 10.0 mi SSW 12.7 mph 17.3 mph N/A   Scattered Clouds
1:53 PM 73.9 °F 60.4 °F 63% 29.95 in 10.0 mi SW 12.7 mph 19.6 mph N/A   Scattered Clouds
2:13 PM 73.9 °F 59.7 °F 61% 29.94 in 10.0 mi WSW 12.7 mph 20.7 mph N/A   Scattered Clouds
2:33 PM 74.1 °F 59.9 °F 61% 29.93 in 10.0 mi SW 11.5 mph - N/A   Scattered Clouds
2:53 PM 75.2 °F 59.7 °F 58% 29.94 in 10.0 mi SW 13.8 mph 20.7 mph N/A   Mostly Cloudy
3:13 PM 74.3 °F 59.9 °F 61% 29.93 in 10.0 mi WSW 13.8 mph 19.6 mph N/A   Mostly Cloudy
3:33 PM 74.1 °F 59.9 °F 61% 29.93 in 10.0 mi SSW 16.1 mph 23.0 mph N/A   Mostly Cloudy
3:53 PM 73.6 °F 59.9 °F 62% 29.92 in 10.0 mi SSW 11.5 mph - N/A   Mostly Cloudy
4:14 PM 75.2 °F 59.0 °F 57% 29.92 in 10.0 mi SSW 15.0 mph 23.0 mph N/A   Scattered Clouds
4:33 PM 74.7 °F 59.0 °F 58% 29.91 in 10.0 mi SSW 16.1 mph 24.2 mph N/A   Scattered Clouds
4:53 PM 74.8 °F 59.2 °F 58% 29.91 in 10.0 mi SW 13.8 mph 21.9 mph N/A   Scattered Clouds
5:14 PM 74.3 °F 59.4 °F 60% 29.92 in 10.0 mi SW 11.5 mph 19.6 mph N/A   Scattered Clouds
5:33 PM 73.4 °F 59.4 °F 61% 29.92 in 10.0 mi SW 12.7 mph 20.7 mph N/A   Mostly Cloudy
5:53 PM 72.9 °F 59.2 °F 62% 29.92 in 10.0 mi WSW 12.7 mph 18.4 mph N/A   Mostly Cloudy
6:13 PM 72.1 °F 58.3 °F 62% 29.92 in 10.0 mi SW 13.8 mph 24.2 mph N/A   Scattered Clouds
6:33 PM 70.7 °F 59.0 °F 66% 29.92 in 10.0 mi SW 9.2 mph - N/A   Scattered Clouds
6:53 PM 68.5 °F 58.8 °F 71% 29.92 in 10.0 mi SW 9.2 mph - N/A   Scattered Clouds
7:13 PM 67.5 °F 58.6 °F 73% 29.92 in 10.0 mi SW 9.2 mph 16.1 mph N/A   Clear
7:33 PM 66.2 °F 58.6 °F 77% 29.92 in 10.0 mi SW 8.1 mph - N/A   Clear
7:53 PM 65.7 °F 58.8 °F 79% 29.93 in 10.0 mi SW 9.2 mph - N/A   Clear
8:13 PM 65.3 °F 58.8 °F 80% 29.94 in 10.0 mi WSW 10.4 mph - N/A   Scattered Clouds
8:33 PM 64.6 °F 58.6 °F 81% 29.94 in 10.0 mi SW 5.8 mph - N/A   Scattered Clouds
8:53 PM 63.9 °F 58.6 °F 83% 29.93 in 10.0 mi SW 9.2 mph - N/A   Scattered Clouds
9:14 PM 63.9 °F 59.0 °F 84% 29.94 in 10.0 mi SW 8.1 mph - N/A   Clear
9:33 PM 63.5 °F 59.0 °F 85% 29.94 in 10.0 mi SW 8.1 mph - N/A   Clear
9:53 PM 63.0 °F 59.0 °F 87% 29.94 in 10.0 mi SW 4.6 mph - N/A   Clear
10:13 PM 62.6 °F 59.0 °F 88% 29.94 in 10.0 mi SW 6.9 mph - N/A   Clear
10:33 PM 62.6 °F 59.0 °F 88% 29.94 in 10.0 mi SW 5.8 mph - N/A   Clear
10:53 PM 62.6 °F 58.8 °F 87% 29.94 in 10.0 mi WSW 6.9 mph - N/A   Clear
11:13 PM 62.6 °F 59.0 °F 88% 29.94 in 10.0 mi SW 8.1 mph - N/A   Clear
11:33 PM 63.0 °F 59.0 °F 87% 29.93 in 10.0 mi SW 6.9 mph - N/A   Clear
11:53 PM 63.5 °F 59.2 °F 86% 29.93 in 10.0 mi WSW 8.1 mph - N/A   Clear